15min,AgWx,beryljct,423,30AUG2020:00:00:00,60.4,12.85,57.3,55.9,57.8,59.9,55.7,69,77,61,1.164,47.8,49.1,46.4,0.044,2.6,89,23,4.6,0.00016,0.00024,66.4,69.6,9,0,0,53.2,4.35,0.00,0.00
15min,AgWx,beryljct,423,30AUG2020:00:15:00,59.6,12.84,55.4,56.8,56.9,57.4,56.1,74,78,71,1.152,48.7,49.9,47.9,2.653,0.9,103,20,2.9,0.00004,0.00007,66.2,69.5,10,0,0,50.9,4.35,0.00,0.00
15min,AgWx,beryljct,423,30AUG2020:00:30:00,58.9,12.85,59.4,57.0,56.5,58.0,55.0,72,76,67,1.098,47.4,48.6,46.7,1.271,2.4,185,12,4.5,0.00014,0.00020,65.9,69.4,10,0,0,51.0,4.35,0.00,0.00
15min,AgWx,beryljct,423,30AUG2020:00:45:00,58.3,12.84,57.1,57.5,56.7,57.7,55.5,66,72,61,1.007,45.6,47.0,44.4,2.039,3.8,214,21,4.9,0.00023,0.00032,65.7,69.4,10,0,0,51.9,4.35,0.00,0.00
15min,AgWx,beryljct,423,30AUG2020:01:00:00,57.8,12.83,54.7,54.1,55.9,57.6,54.0,65,69,60,0.972,44.3,46.0,42.6,1.14,2.0,302,23,3.7,0.00014,0.00022,65.5,69.3,10,0,0,51.0,4.35,0.00,0.00
15min,AgWx,beryljct,423,30AUG2020:01:15:00,57.1,12.83,55.4,55.5,55.8,58.1,54.1,63,68,58,1.026,43.6,45.3,42.4,0.373,1.2,233,76,2.5,0.00009,0.00015,65.2,69.2,10,0,0,50.1,4.35,0.00,0.00
15min,AgWx,beryljct,423,30AUG2020:01:30:00,56.6,12.82,60.1,58.1,56.8,58.7,55.1,64,71,56,0.999,44.8,46.3,42.9,0,0.2,207,0.0,0.9,-0.00000,0.00000,64.4,69.0,10,0,0,49.6,4.36,0.00,0.00
15min,AgWx,beryljct,423,30AUG2020:01:45:00,56.5,12.81,56.5,57.0,58.9,61.3,57.0,59,66,49,1.041,44.4,46.3,41.9,2.258,2.1,162,24,5.1,0.00019,0.00029,63.9,68.7,13,0,0,52.2,4.36,0.00,0.00
15min,AgWx,beryljct,423,30AUG2020:02:00:00,56.4,12.79,60.9,60.2,57.6,62.5,55.5,63,71,48,1.006,45.2,46.4,42.7,2.214,2.8,175,28,5.5,0.00021,0.00030,63.5,68.5,14,0,0,52.0,4.36,0.00,0.00
15min,AgWx,beryljct,423,30AUG2020:02:15:00,57.1,12.79,68.2,66.9,63.2,66.9,58.4,46,58,36,0.820,41.9,44.7,39.4,3.836,3.9,188,16,5.6,0.00044,0.00063,63.2,68.3,15,0,0,57.3,4.36,0.00,0.00
15min,AgWx,beryljct,423,30AUG2020:02:30:00,58.0,12.78,65.4,65.6,64.6,67.3,62.1,42,50,36,0.844,41.1,43.5,39.1,5.064,4.4,186,6.7,5.4,0.00052,0.00073,63.0,68.1,15,0,0,59.6,4.36,0.00,0.00
15min,AgWx,beryljct,423,30AUG2020:02:45:00,59.0,12.79,66.0,66.0,66.0,67.4,64.9,38,41,35,0.874,39.5,41.7,38.3,5.217,4.8,180,7.4,5.8,0.00062,0.00086,62.7,68.0,16,0,0,60.9,4.36,0.00,0.00
15min,AgWx,beryljct,423,30AUG2020:03:00:00,59.7,12.78,63.6,63.7,63.8,65.9,62.9,44,48,40,0.849,41.5,43.3,39.4,4.867,5.0,187,12,6.3,0.00054,0.00074,62.5,67.8,17,0,0,59.6,4.35,0.00,0.00
15min,AgWx,beryljct,423,30AUG2020:03:15:00,60.0,12.78,60.5,62.2,63.2,64.9,61.6,43,48,39,0.847,40.1,41.7,39.2,5.108,4.9,180,12,5.9,0.00054,0.00075,62.3,67.6,17,0,0,58.5,4.35,0.00,0.00
15min,AgWx,beryljct,423,30AUG2020:03:30:00,60.1,12.78,65.2,64.5,63.7,64.6,61.8,41,45,38,0.796,39.4,40.4,38.7,4.998,4.7,173,9.3,6.2,0.00055,0.00077,62.1,67.5,17,0,0,58.5,4.35,0.00,0.00
15min,AgWx,beryljct,423,30AUG2020:03:45:00,60.1,12.77,61.5,61.4,62.9,64.6,61.4,44,51,38,0.930,40.4,43.0,38.1,4.779,4.9,186,11,5.7,0.00053,0.00074,62.0,67.4,17,0,0,58.3,4.35,0.00,0.00
15min,AgWx,beryljct,423,30AUG2020:04:00:00,59.9,12.75,63.1,63.5,62.1,64.1,60.8,48,53,43,0.901,41.9,43.9,39.4,5.349,5.0,195,11,6.4,0.00049,0.00067,61.8,67.2,18,0,0,57.6,4.35,0.00,0.00
15min,AgWx,beryljct,423,30AUG2020:04:15:00,60.3,12.75,66.2,65.9,64.7,66.0,63.3,43,46,39,0.883,41.5,42.5,40.3,6.226,5.6,203,3.7,7.5,0.00060,0.00082,61.6,67.1,18,0,0,60.6,4.35,0.00,0.00
15min,AgWx,beryljct,423,30AUG2020:04:30:00,61.0,12.75,62.6,64.1,64.8,66.2,62.8,43,50,40,0.957,42.0,44.2,41.0,4.275,5.1,203,4.4,6.5,0.00057,0.00079,61.5,67.0,18,0,0,60.8,4.35,0.00,0.00
15min,AgWx,beryljct,423,30AUG2020:04:45:00,60.8,12.75,61.6,61.3,62.5,64.3,59.9,43,51,40,0.786,39.9,43.5,37.9,2.718,4.5,178,15,6.0,0.00050,0.00070,61.3,66.9,18,0,0,58.0,4.35,0.00,0.00
15min,AgWx,beryljct,423,30AUG2020:05:00:00,59.8,12.74,57.2,56.8,57.7,61.4,56.1,55,62,42,0.866,41.3,43.3,37.7,1.228,2.1,89,42,3.9,0.00020,0.00031,61.2,66.8,19,0,0,53.0,4.35,0.00,0.00
15min,AgWx,beryljct,423,30AUG2020:05:15:00,58.4,12.74,58.7,58.1,57.0,58.1,56.3,56,60,51,0.837,41.4,42.9,40.0,1.096,0.8,74,24,2.1,0.00008,0.00013,61.0,66.7,18,0,0,50.6,4.35,0.00,0.00
15min,AgWx,beryljct,423,30AUG2020:05:30:00,57.2,12.74,57.6,59.4,57.9,60.1,56.0,54,65,44,0.818,41.2,44.4,38.0,2.28,1.6,60,17,3.1,0.00021,0.00036,60.9,66.6,19,0,0,51.5,4.35,0.00,0.00
15min,AgWx,beryljct,423,30AUG2020:05:45:00,56.5,12.73,54.0,55.0,57.1,60.5,54.7,55,64,46,0.875,41.1,43.7,39.1,1.622,1.7,79,12,3.0,0.00022,0.00038,60.8,66.5,19,0,0,51.4,4.35,0.00,0.00
15min,AgWx,beryljct,423,30AUG2020:06:00:00,55.6,12.73,54.6,53.9,54.2,55.2,53.4,61,64,58,0.884,41.2,41.6,40.8,3.661,1.4,106,16,3.7,0.00015,0.00026,60.6,66.4,19,1,0,47.7,4.35,0.00,0.00
15min,AgWx,beryljct,423,30AUG2020:06:15:00,54.7,12.74,52.7,53.9,54.4,58.1,52.8,61,66,48,0.876,41.1,42.0,38.7,1.162,2.9,156,25,4.7,0.00033,0.00056,60.5,66.3,19,6,0,48.8,4.35,0.00,0.00
15min,AgWx,beryljct,423,30AUG2020:06:30:00,54.3,12.75,55.7,55.3,55.3,59.1,51.7,57,68,46,0.819,39.9,42.1,38.5,2.105,1.9,2.0,35,3.8,0.00036,0.00054,60.3,66.2,19,23,0,52.5,4.35,0.00,0.00
15min,AgWx,beryljct,423,30AUG2020:06:45:00,54.3,12.78,62.1,59.2,56.0,59.2,54.1,54,63,44,0.757,39.7,42.1,37.4,3.113,2.7,297,6.0,4.2,0.00064,0.00090,60.2,66.1,19,54,0,58.2,4.35,0.00,0.00
15min,AgWx,beryljct,423,30AUG2020:07:00:00,55.4,12.77,59.4,58.7,59.3,60.7,57.8,49,62,42,1.023,40.2,46.0,37.2,0.921,0.9,284,72,3.2,0.00078,0.00093,60.0,66.0,19,113,0,75.9,4.35,0.00,0.00
15min,AgWx,beryljct,423,30AUG2020:07:15:00,57.3,12.8,62.3,61.8,60.0,62.1,57.8,55,69,46,1.012,43.7,47.6,39.9,2.236,1.7,99,22,2.7,0.00108,0.00130,59.9,65.9,20,161,0,80.2,4.35,0.00,0.00
15min,AgWx,beryljct,423,30AUG2020:07:30:00,60.0,12.88,68.8,67.6,63.7,67.6,61.8,54,64,40,0.930,46.5,50.2,42.7,4.538,2.7,138,50,5.7,0.00149,0.00183,59.8,65.8,20,209,0,87.5,4.34,0.00,0.00
15min,AgWx,beryljct,423,30AUG2020:07:45:00,63.4,13.01,71.5,71.5,69.8,71.5,67.7,36,40,31,0.815,41.5,43.6,39.3,4.077,4.5,177,8.0,6.0,0.00227,0.00302,59.7,65.7,20,258,0,94.1,4.34,0.00,0.00
15min,AgWx,beryljct,423,30AUG2020:08:00:00,67.1,13.23,73.1,73.4,72.2,73.4,71.3,33,37,29,0.973,41.7,44.1,38.5,4.034,4.1,181,9.6,6.8,0.00260,0.00338,59.7,65.6,20,309,0,99.3,4.34,0.00,0.00
15min,AgWx,beryljct,423,30AUG2020:08:15:00,70.4,13.48,74.9,74.4,74.0,74.6,73.3,28,34,25,0.770,39.2,43.3,36.1,8.88,7.1,199,10,11.2,0.00346,0.00473,59.8,65.5,21,362,0,98.6,4.33,0.00,0.00
15min,AgWx,beryljct,423,30AUG2020:08:30:00,73.1,13.75,75.4,75.4,75.1,75.7,74.4,24,28,21,0.736,36.0,39.3,32.9,9.05,10.1,200,7.1,13.6,0.00433,0.00613,59.9,65.4,21,415,0,96.5,4.33,0.00,0.00
15min,AgWx,beryljct,423,30AUG2020:08:45:00,75.0,14.04,77.2,77.1,76.0,77.1,75.2,24,28,20,0.688,36.1,39.9,32.9,9.08,10.1,199,10,14.6,0.00468,0.00653,60.0,65.4,21,466,0,97.9,4.33,0.00,0.00
15min,AgWx,beryljct,423,30AUG2020:09:00:00,77.0,13.96,77.9,78.1,77.5,78.1,76.8,22,26,18,0.715,35.8,39.8,31.6,9.21,10.4,193,17,15.1,0.00511,0.00709,60.2,65.3,21,514,0,100.0,4.32,0.00,0.00
15min,AgWx,beryljct,423,30AUG2020:09:15:00,78.5,13.95,78.3,78.5,78.3,78.9,77.6,22,26,20,0.794,35.8,40.0,33.4,7.322,11.3,193,9.3,15.6,0.00557,0.00772,60.5,65.2,21,561,0,100.5,4.32,0.00,0.00
15min,AgWx,beryljct,423,30AUG2020:09:30:00,79.9,13.94,78.5,79.3,78.8,79.3,78.3,21,25,19,0.786,36.1,39.6,33.5,10.37,11.7,200,12,17.5,0.00590,0.00813,60.7,65.1,21,605,0,100.9,4.32,0.00,0.00
15min,AgWx,beryljct,423,30AUG2020:09:45:00,80.8,13.91,79.6,79.7,79.2,79.7,78.7,22,27,20,0.731,37.3,41.8,34.4,13.26,11.2,199,9.7,15.9,0.00608,0.00826,61.0,65.1,21,645,0,102.0,4.31,0.00,0.00
15min,AgWx,beryljct,423,30AUG2020:10:00:00,81.6,13.91,80.5,80.5,79.9,80.5,79.6,22,24,20,0.704,37.3,39.9,35.2,11.82,12.1,195,11,16.2,0.00650,0.00885,61.4,65.0,21,686,0,101.9,4.32,0.00,0.00
15min,AgWx,beryljct,423,30AUG2020:10:15:00,82.4,14,80.1,81.0,80.5,81.0,80.0,22,24,19,0.795,38.1,40.5,35.1,15.04,13.3,190,9.1,18.1,0.00688,0.00941,61.7,65.0,21,722,0,101.8,4.31,0.00,0.00
15min,AgWx,beryljct,423,30AUG2020:10:30:00,83.0,13.88,81.3,81.1,80.7,81.3,80.1,22,26,20,0.768,38.9,42.0,35.6,17.43,13.3,194,11,17.9,0.00708,0.00961,62.1,64.9,21,757,0,101.8,4.32,0.00,0.00
15min,AgWx,beryljct,423,30AUG2020:10:45:00,83.3,13.87,81.2,80.7,80.6,81.1,80.4,23,26,21,0.808,39.8,43.0,36.9,13.22,12.1,203,9.0,19.1,0.00708,0.00944,62.5,64.9,21,785,0,102.0,4.32,0.00,0.00
15min,AgWx,beryljct,423,30AUG2020:11:00:00,83.8,13.49,80.9,81.5,81.6,82.2,80.8,23,26,21,0.913,40.5,43.8,38.0,12.36,12.7,193,12,18.1,0.00738,0.00986,62.9,64.9,21,812,0,102.6,4.32,0.00,0.00
15min,AgWx,beryljct,423,30AUG2020:11:15:00,84.3,13.44,81.5,81.9,81.6,82.2,81.1,24,27,21,0.816,41.5,44.9,38.4,6.949,9.9,198,12,16.3,0.00718,0.00927,63.3,64.9,21,836,0,104.3,4.32,0.00,0.00
15min,AgWx,beryljct,423,30AUG2020:11:30:00,84.9,13.45,81.9,82.2,82.0,82.5,81.4,25,29,22,1.024,43.1,47.0,39.5,12.76,10.8,185,17,15.1,0.00736,0.00955,63.8,64.9,21,853,0,103.9,4.32,0.00,0.00
15min,AgWx,beryljct,423,30AUG2020:11:45:00,85.6,13.51,82.4,81.8,82.1,82.7,81.6,27,31,24,1.066,45.0,48.1,41.5,10.65,10.0,189,16,14.7,0.00733,0.00938,64.2,64.9,21,869,0,104.4,4.32,0.00,0.00
15min,AgWx,beryljct,423,30AUG2020:12:00:00,86.0,13.46,82.8,82.8,82.1,82.9,81.4,30,35,26,1.246,47.9,52.1,44.0,6.029,9.4,199,17,15.8,0.00728,0.00919,64.7,64.9,21,884,0,103.5,4.32,0.00,0.00
15min,AgWx,beryljct,423,30AUG2020:12:15:00,86.5,13.42,81.1,81.1,82.2,82.9,81.1,30,34,27,1.203,47.8,50.9,44.3,10.65,7.8,192,27,13.4,0.00700,0.00867,65.2,64.9,21,862,0,105.7,4.32,0.00,0.00
15min,AgWx,beryljct,423,30AUG2020:12:30:00,86.2,13.46,81.7,81.6,81.5,82.7,80.7,32,37,27,1.075,48.6,52.3,44.4,3.639,8.1,227,23,13.5,0.00661,0.00828,65.8,65.0,21,808,0,100.0,4.32,0.00,0.00
15min,AgWx,beryljct,423,30AUG2020:12:45:00,86.3,13.42,82.4,82.9,82.6,83.8,81.4,30,37,26,1.009,47.9,52.9,44.0,13.39,10.4,185,26,19.8,0.00746,0.00951,66.3,65.1,21,894,0,102.3,4.32,0.00,0.00
15min,AgWx,beryljct,423,30AUG2020:13:00:00,86.7,13.4,83.0,83.2,82.6,83.3,81.6,29,34,25,1.044,46.9,50.6,43.7,6.949,9.3,180,20,16.5,0.00740,0.00935,66.8,65.1,21,896,0,100.9,4.32,0.00,0.00
15min,AgWx,beryljct,423,30AUG2020:13:15:00,87.3,13.48,82.2,82.9,83.2,83.9,82.5,27,33,23,0.926,45.8,50.9,42.1,13.85,9.1,193,21,14.4,0.00741,0.00936,67.3,65.2,21,891,0,101.3,4.33,0.00,0.00
15min,AgWx,beryljct,423,30AUG2020:13:30:00,87.6,13.4,82.9,82.6,82.7,83.3,82.1,25,32,22,1.005,43.7,49.0,40.8,6.401,10.4,183,18,16.4,0.00750,0.00968,67.8,65.3,21,881,0,98.4,4.32,0.00,0.00
15min,AgWx,beryljct,423,30AUG2020:13:45:00,87.9,13.38,83.8,82.6,82.7,83.2,82.2,26,31,21,1.093,44.0,48.9,38.1,13.79,7.4,212,48,13.8,0.00704,0.00874,68.4,65.4,21,869,0,99.2,4.32,0.00,0.00
15min,AgWx,beryljct,423,30AUG2020:14:00:00,88.2,13.35,82.7,82.6,83.1,84.1,82.3,24,29,20,0.851,42.8,47.0,37.2,3.529,9.3,202,26,18.2,0.00725,0.00930,68.8,65.5,21,854,0,97.0,4.32,0.00,0.00
15min,AgWx,beryljct,423,30AUG2020:14:15:00,88.5,13.45,83.5,83.1,83.3,84.6,82.3,25,30,20,0.892,43.6,48.0,38.2,11.97,9.4,216,29,15.8,0.00709,0.00911,69.3,65.6,21,834,0,95.6,4.32,0.00,0.00
15min,AgWx,beryljct,423,30AUG2020:14:30:00,88.7,13.33,83.9,84.1,83.5,84.2,83.1,20,25,17,0.969,38.8,44.4,33.5,4.472,7.9,188,34,15.3,0.00682,0.00871,69.7,65.8,21,808,0,95.7,4.32,0.00,0.00
15min,AgWx,beryljct,423,30AUG2020:14:45:00,89.2,13.36,82.3,83.5,83.8,84.6,83.1,23,27,18,0.917,41.5,46.2,36.1,10.98,6.5,214,28,14.3,0.00639,0.00798,70.0,65.9,21,780,0,96.3,4.32,0.00,0.00
15min,AgWx,beryljct,423,30AUG2020:15:00:00,89.4,13.33,82.9,83.5,83.8,84.8,83.1,21,26,18,0.966,39.1,44.8,35.4,10.96,9.0,197,19,15.0,0.00646,0.00848,70.4,66.1,21,730,0,92.9,4.32,0.00,0.00
15min,AgWx,beryljct,423,30AUG2020:15:15:00,89.4,13.29,82.9,82.9,83.3,84.2,82.9,21,27,15,0.809,39.3,45.9,31.3,10.72,7.5,201,35,13.8,0.00602,0.00777,70.7,66.2,21,707,0,91.8,4.32,0.00,0.00
15min,AgWx,beryljct,423,30AUG2020:15:30:00,89.1,13.31,83.6,84.6,83.3,84.6,82.6,20,27,15,0.768,37.8,45.6,31.9,4.077,9.5,210,25,16.6,0.00621,0.00832,71.0,66.4,21,682,0,89.7,4.32,0.00,0.00
15min,AgWx,beryljct,423,30AUG2020:15:45:00,89.0,13.39,82.7,83.3,83.2,84.4,82.7,19,23,14,0.794,36.2,41.5,29.9,9.34,9.1,162,15,16.8,0.00586,0.00788,71.2,66.5,20,641,0,89.9,4.32,0.00,0.00
15min,AgWx,beryljct,423,30AUG2020:16:00:00,89.1,13.3,83.3,83.8,83.7,85.1,82.5,18,23,15,0.753,36.2,41.6,31.1,9.08,8.7,173,18,15.7,0.00539,0.00735,71.4,.,.,579,0,89.8,4.32,0.00,0.00
15min,AgWx,beryljct,423,30AUG2020:16:15:00,89.0,13.34,83.3,84.1,84.0,84.4,83.4,17,21,14,0.612,34.5,40.3,29.0,15.3,9.1,184,17,15.6,0.00530,0.00733,71.5,66.8,21,551,0,89.3,4.32,0.00,0.00
15min,AgWx,beryljct,423,30AUG2020:16:30:00,88.8,13.38,82.7,83.5,83.4,84.1,82.6,17,21,14,0.606,34.1,39.1,29.7,8.9,9.7,171,16,14.6,0.00507,0.00721,71.6,.,.,500,0,88.8,4.32,0.00,0.00
15min,AgWx,beryljct,423,30AUG2020:16:45:00,88.3,13.3,82.3,82.5,83.1,83.7,82.2,19,23,16,0.768,36.0,40.3,31.6,8.57,9.6,173,15,15.3,0.00464,0.00668,71.7,67.1,21,449,0,87.9,4.32,0.00,0.00
15min,AgWx,beryljct,423,30AUG2020:17:00:00,87.7,13.31,83.6,83.8,83.3,84.0,82.1,19,23,16,0.631,36.7,40.9,32.2,9.58,10.0,183,19,15.0,0.00438,0.00645,71.7,67.3,20,401,0,87.7,4.32,0.00,0.00
15min,AgWx,beryljct,423,30AUG2020:17:15:00,87.3,13.35,82.0,83.1,83.2,84.1,82.4,19,22,16,0.836,36.5,40.1,32.6,7.081,9.0,178,15,17.1,0.00385,0.00575,71.7,67.5,21,349,0,87.3,4.32,0.00,0.00
15min,AgWx,beryljct,423,30AUG2020:17:30:00,86.8,13.38,82.1,81.8,82.5,83.8,81.3,21,23,17,0.777,38.3,41.3,34.5,14.14,9.5,169,13,16.1,0.00353,0.00541,71.6,67.6,21,297,0,86.2,4.32,0.01,0.00
15min,AgWx,beryljct,423,30AUG2020:17:45:00,85.9,13.39,82.0,82.1,81.9,82.9,80.1,22,27,18,0.839,38.7,43.0,35.4,7.585,9.4,175,14,14.2,0.00314,0.00498,71.5,67.8,21,245,0,83.8,4.32,0.00,0.00
15min,AgWx,beryljct,423,30AUG2020:18:00:00,85.1,13.24,81.9,82.4,82.3,82.7,81.9,21,24,19,0.807,38.9,41.3,36.5,10.72,9.4,180,11,14.8,0.00279,0.00460,71.3,67.9,21,195,0,82.9,4.32,0.00,0.00
15min,AgWx,beryljct,423,30AUG2020:18:15:00,84.3,13.1,80.5,81.3,81.9,82.4,81.3,22,23,20,0.838,39.0,40.4,37.4,10.06,10.4,187,11,14.6,0.00172,0.00226,71.1,68.0,20,147,0,82.0,4.32,0.00,0.00
15min,AgWx,beryljct,423,30AUG2020:18:30:00,83.4,13.08,80.9,80.9,81.0,81.7,80.4,23,24,22,0.833,39.7,41.0,38.6,12.76,11.2,187,8.9,15.4,0.00163,0.00212,70.9,68.1,20,103,0,80.9,4.32,0.00,0.00
15min,AgWx,beryljct,423,30AUG2020:18:45:00,82.2,13.06,79.7,79.4,80.2,81.1,79.3,24,26,23,0.850,40.2,41.2,39.3,9.71,10.1,188,7.7,14.8,0.00140,0.00185,70.6,68.3,20,58,0,79.4,4.33,0.00,0.00
15min,AgWx,beryljct,423,30AUG2020:19:00:00,80.7,13.02,76.6,77.6,78.6,79.5,77.5,26,28,25,0.881,41.1,41.8,40.4,6.007,8.2,194,6.9,12.0,0.00104,0.00143,70.3,68.3,20,16,0,76.6,4.33,0.00,0.00
15min,AgWx,beryljct,423,30AUG2020:19:15:00,78.9,13.01,73.8,74.2,76.0,77.4,74.2,29,32,27,0.911,41.4,42.4,40.9,4.801,6.0,188,4.9,7.6,0.00068,0.00098,70.0,68.4,20,4,0,72.8,4.33,0.00,0.00
15min,AgWx,beryljct,423,30AUG2020:19:30:00,76.8,13,74.0,73.7,74.0,74.3,73.6,31,32,30,0.851,41.1,42.1,40.2,5.809,5.8,190,5.6,7.0,0.00059,0.00086,69.7,68.5,20,1,0,70.2,4.33,0.00,0.00
15min,AgWx,beryljct,423,30AUG2020:19:45:00,75.2,12.97,74.1,74.4,73.9,74.9,73.3,29,31,27,0.847,40.0,40.8,39.0,6.467,6.8,193,6.7,9.2,0.00072,0.00102,69.4,68.6,20,0,0,70.1,4.33,0.00,0.00
15min,AgWx,beryljct,423,30AUG2020:20:00:00,74.1,12.96,70.9,70.9,72.4,74.3,70.9,32,34,29,0.881,40.5,41.5,39.6,5.831,6.1,188,5.2,7.8,0.00060,0.00086,69.1,68.6,20,0,0,68.7,4.33,0.00,0.00
15min,AgWx,beryljct,423,30AUG2020:20:15:00,72.5,12.96,68.4,68.9,69.8,70.9,68.8,34,37,32,0.879,40.6,42.3,38.9,5.108,5.5,186,3.9,6.7,0.00047,0.00069,68.7,68.7,20,0,0,65.7,4.34,0.00,0.00
15min,AgWx,beryljct,423,30AUG2020:20:30:00,71.1,12.96,69.2,69.6,70.0,71.1,68.5,32,37,29,0.767,38.8,41.4,37.4,4.012,4.6,177,5.7,5.4,0.00039,0.00060,68.4,68.7,20,0,0,65.0,4.33,0.00,0.00
15min,AgWx,beryljct,423,30AUG2020:20:45:00,69.9,12.96,66.1,66.3,67.8,70.0,65.6,35,41,29,0.855,39.0,41.6,35.8,5.13,5.5,177,7.1,8.2,0.00045,0.00065,68.1,68.7,20,0,0,63.3,4.34,0.01,0.00
15min,AgWx,beryljct,423,30AUG2020:21:00:00,68.7,12.94,67.8,68.6,66.7,68.6,65.2,38,41,34,0.817,40.0,41.5,38.8,6.927,6.9,185,6.3,8.7,0.00054,0.00075,67.8,68.7,20,0,0,62.3,4.34,0.00,0.00
15min,AgWx,beryljct,423,30AUG2020:21:15:00,68.1,12.95,64.6,65.2,67.9,69.2,65.2,36,43,33,0.901,39.9,42.3,38.1,5.415,6.6,186,4.5,9.6,0.00055,0.00078,67.5,68.7,20,0,0,63.9,4.34,0.00,0.00
15min,AgWx,beryljct,423,30AUG2020:21:30:00,67.2,12.93,62.6,63.5,64.8,66.2,63.0,40,46,35,0.910,40.1,42.3,37.4,5.217,5.5,185,5.3,6.4,0.00037,0.00054,67.2,68.7,20,0,0,60.4,4.34,0.00,0.00
15min,AgWx,beryljct,423,30AUG2020:21:45:00,66.5,12.93,67.9,68.4,66.3,68.4,63.3,37,45,33,0.795,39.2,41.9,38.1,6.555,6.5,196,3.6,7.9,0.00050,0.00071,67.0,68.7,20,0,0,62.0,4.34,0.00,0.00
15min,AgWx,beryljct,423,30AUG2020:22:00:00,66.3,12.92,68.7,67.2,67.1,68.5,66.0,36,41,33,0.745,39.5,41.9,37.0,5.415,5.7,187,8.2,7.4,0.00046,0.00066,66.6,68.7,20,0,0,63.0,4.35,0.00,0.00
15min,AgWx,beryljct,423,30AUG2020:22:15:00,66.2,12.92,63.9,65.7,67.7,68.6,65.7,31,34,28,0.728,35.6,37.3,34.1,4.187,4.9,178,5.3,5.9,0.00042,0.00063,66.4,68.7,20,0,0,62.7,4.35,0.00,0.00
15min,AgWx,beryljct,423,30AUG2020:22:30:00,65.3,12.92,58.5,59.6,63.7,65.4,59.6,35,49,31,0.844,35.6,40.2,32.9,4.735,3.1,169,14,4.9,0.00014,0.00025,66.1,68.6,20,0,0,58.8,4.35,0.00,0.00
15min,AgWx,beryljct,423,30AUG2020:22:45:00,63.6,12.92,57.5,56.6,56.6,59.3,55.1,59,65,49,0.884,42.5,44.0,40.1,0,1.0,151,17,4.3,-0.00021,-0.00029,65.9,68.6,20,0,0,51.7,4.35,0.00,0.00
15min,AgWx,beryljct,423,30AUG2020:23:00:00,61.9,12.91,60.4,60.8,58.3,61.0,56.7,51,58,41,0.782,39.9,42.4,36.9,1.03,0.4,212,7.8,1.3,-0.00032,-0.00048,65.6,68.6,20,0,0,50.6,4.35,0.00,0.00
15min,AgWx,beryljct,423,30AUG2020:23:15:00,61.0,12.9,58.0,59.8,61.0,64.7,59.0,44,53,33,0.848,38.9,41.9,35.3,0.241,0.4,293,5.2,2.3,-0.00032,-0.00048,65.4,68.5,20,0,0,54.3,4.35,0.00,0.00
15min,AgWx,beryljct,423,30AUG2020:23:30:00,60.5,12.9,58.4,58.2,61.2,63.6,58.1,41,53,35,0.809,37.4,41.1,35.1,1.008,1.8,306,6.8,3.3,-0.00009,-0.00008,65.1,68.5,20,0,0,54.4,4.35,0.00,0.00
15min,AgWx,beryljct,423,30AUG2020:23:45:00,60.0,12.88,60.8,59.8,59.5,61.2,58.0,42,48,38,0.694,36.4,39.0,34.9,1.644,2.0,354,26,3.2,-0.00005,-0.00004,64.9,68.4,19,0,0,53.9,4.35,0.00,0.00
15min,AgWx,bigpiney,439,30AUG2020:00:00:00,51.7,12.67,48.6,47.9,46.2,47.9,45.4,44,46,40,0.456,25.5,25.9,24.8,7.914,7.6,231,6.0,10.1,0.00029,0.00038,54.4,53.1,46,0,0,0.0,8.21,0.00,0.00
15min,AgWx,bigpiney,439,30AUG2020:00:15:00,51.1,12.66,50.4,50.1,49.1,50.1,47.9,38,40,36,0.444,24.5,25.0,24.2,7.782,8.6,242,5.1,10.0,0.00040,0.00052,54.3,53.1,46,0,0,0.0,8.21,0.00,0.00
15min,AgWx,bigpiney,439,30AUG2020:00:30:00,51.1,12.65,50.4,50.3,50.9,51.5,50.1,35,36,33,0.436,23.9,24.3,23.5,9.21,9.0,242,6.8,11.1,0.00047,0.00060,54.3,53.1,46,0,0,0.0,8.21,0.00,0.00
15min,AgWx,bigpiney,439,30AUG2020:00:45:00,51.3,12.64,48.0,48.3,49.2,50.3,48.3,38,40,35,0.459,24.4,25.0,23.8,7.432,8.7,232,6.3,10.3,0.00041,0.00053,54.2,53.1,46,0,0,0.0,8.21,0.00,0.00
15min,AgWx,bigpiney,439,30AUG2020:01:00:00,51.2,12.64,45.2,45.0,46.7,48.3,44.5,43,48,40,0.471,25.3,25.9,25.0,6.664,7.1,224,6.0,9.0,0.00029,0.00038,54.2,53.0,46,0,0,0.0,8.21,0.00,0.00
15min,AgWx,bigpiney,439,30AUG2020:01:15:00,50.4,12.63,42.2,42.9,44.7,45.5,42.9,47,50,45,0.473,25.8,26.3,25.5,0.373,3.5,226,44,6.8,0.00006,0.00011,54.1,53.1,46,0,0,0.0,8.21,0.00,0.00
15min,AgWx,bigpiney,439,30AUG2020:01:30:00,49.6,12.63,50.3,48.2,46.0,48.2,42.5,43,52,38,0.438,24.5,26.0,23.9,1.798,1.2,28,67,3.4,-0.00016,-0.00021,54.0,53.1,46,0,0,0.0,8.21,0.00,0.00
15min,AgWx,bigpiney,439,30AUG2020:01:45:00,48.9,12.61,43.4,42.7,46.6,49.0,42.6,42,50,37,0.464,24.9,25.4,23.8,0.46,2.6,234,48,5.5,0.00000,0.00004,54.0,53.1,46,0,0,0.0,8.21,0.00,0.00
15min,AgWx,bigpiney,439,30AUG2020:02:00:00,48.0,12.6,41.9,41.3,42.0,42.9,40.7,50,53,49,0.453,24.8,25.2,24.3,0.46,1.1,70,62,3.6,-0.00017,-0.00023,53.9,53.0,46,0,0,0.0,8.21,0.00,0.00
15min,AgWx,bigpiney,439,30AUG2020:02:15:00,47.1,12.59,42.5,40.9,42.8,44.8,40.2,49,57,45,0.488,24.9,26.5,24.4,4.626,3.1,218,16,5.6,0.00001,0.00005,53.9,53.1,46,0,0,0.0,8.21,0.00,0.00
15min,AgWx,bigpiney,439,30AUG2020:02:30:00,46.0,12.59,49.5,43.6,40.4,43.8,37.1,57,64,50,0.488,26.4,27.1,25.1,5.327,3.6,230,30,6.5,0.00002,0.00004,53.8,53.0,46,0,0,0.0,8.21,0.00,0.00
15min,AgWx,bigpiney,439,30AUG2020:02:45:00,44.9,12.56,36.7,35.8,40.1,45.3,35.8,56,69,45,0.488,25.4,27.1,24.2,2.894,4.4,79,53,6.6,0.00006,0.00011,53.7,53.0,46,0,0,0.0,8.21,0.00,0.00
15min,AgWx,bigpiney,439,30AUG2020:03:00:00,43.9,12.56,44.3,40.8,37.4,40.8,35.9,67,69,59,0.508,27.3,27.7,26.6,1.754,1.8,179,24,4.1,-0.00012,-0.00015,53.7,53.0,46,0,0,0.0,8.21,0.00,0.00
15min,AgWx,bigpiney,439,30AUG2020:03:15:00,43.0,12.56,40.6,38.9,39.4,43.2,36.8,60,66,52,0.484,26.7,27.5,25.2,1.841,1.9,233,37,4.8,-0.00011,-0.00013,53.6,53.0,46,0,0,0.0,8.21,0.00,0.00
15min,AgWx,bigpiney,439,30AUG2020:03:30:00,42.3,12.55,37.9,37.6,38.7,41.0,37.2,59,61,56,0.454,25.7,27.0,24.7,1.491,1.6,325,35,4.7,-0.00013,-0.00016,53.5,53.0,46,0,0,0.0,8.21,0.00,0.00
15min,AgWx,bigpiney,439,30AUG2020:03:45:00,41.8,12.54,40.0,39.7,37.8,39.7,36.7,60,63,57,0.469,25.4,25.8,24.6,3.968,1.9,19,18,4.0,-0.00010,-0.00012,53.4,53.0,46,0,0,0.0,8.21,0.00,0.00
15min,AgWx,bigpiney,439,30AUG2020:04:00:00,41.3,12.52,39.3,39.3,39.7,40.2,39.2,57,58,56,0.468,25.5,26.2,25.1,3.113,2.4,359,22,4.0,-0.00006,-0.00006,53.4,53.0,46,0,0,0.0,8.21,0.00,0.00
15min,AgWx,bigpiney,439,30AUG2020:04:15:00,41.1,12.51,40.2,40.3,39.8,41.3,38.6,56,58,53,0.465,25.5,25.9,24.8,2.148,1.2,280,52,4.2,-0.00016,-0.00021,53.3,53.0,46,0,0,0.0,8.21,0.00,0.00
15min,AgWx,bigpiney,439,30AUG2020:04:30:00,41.0,12.5,35.9,37.7,40.9,41.9,37.7,53,58,51,0.442,25.0,25.6,24.1,6.335,3.8,199,8.9,6.3,0.00004,0.00007,53.3,52.9,46,0,0,0.0,8.21,0.00,0.00
15min,AgWx,bigpiney,439,30AUG2020:04:45:00,40.7,12.49,45.5,44.2,39.1,44.2,36.0,57,63,47,0.462,25.0,26.0,24.1,3.858,3.3,203,15,6.2,-0.00000,0.00002,53.2,52.9,46,0,0,0.0,8.21,0.00,0.00
15min,AgWx,bigpiney,439,30AUG2020:05:00:00,40.5,12.47,46.9,47.0,44.2,47.3,41.8,48,53,44,0.487,25.7,27.0,24.3,4.845,4.0,239,19,6.2,0.00008,0.00014,53.1,52.9,46,0,0,0.0,8.21,0.00,0.00
15min,AgWx,bigpiney,439,30AUG2020:05:15:00,41.0,12.47,38.0,39.8,44.7,47.2,39.8,51,54,44,0.453,27.4,28.9,24.6,1.82,3.9,260,61,6.8,0.00007,0.00012,53.0,52.9,46,0,0,0.0,8.21,0.00,0.00
15min,AgWx,bigpiney,439,30AUG2020:05:30:00,41.6,12.46,37.6,38.3,39.1,40.9,38.2,58,60,55,0.471,25.6,26.4,24.7,3.902,2.1,98,44,4.8,-0.00009,-0.00010,52.9,52.9,46,0,0,0.0,8.21,0.00,0.00
15min,AgWx,bigpiney,439,30AUG2020:05:45:00,41.6,12.46,38.0,38.7,39.6,43.8,36.2,58,65,51,0.460,26.1,27.8,25.1,4.823,3.3,105,32,5.6,-0.00000,0.00002,52.9,52.8,46,2,0,0.0,8.21,0.00,0.00
15min,AgWx,bigpiney,439,30AUG2020:06:00:00,41.5,12.47,37.9,37.8,39.3,42.2,37.8,57,61,54,0.456,25.4,27.7,24.5,5.437,2.7,74,38,5.9,-0.00003,0.00012,52.8,52.8,46,9,0,0.0,8.21,0.00,0.00
15min,AgWx,bigpiney,439,30AUG2020:06:15:00,41.4,12.49,35.6,36.0,37.3,39.3,36.0,60,64,57,0.453,24.9,25.7,24.6,2.959,2.9,80,16,5.1,-0.00008,0.00006,52.7,52.8,46,28,0,0.0,8.21,0.00,0.00
15min,AgWx,bigpiney,439,30AUG2020:06:30:00,41.2,12.53,37.9,37.9,36.6,37.9,35.6,62,65,59,0.454,24.7,25.6,24.3,0,2.1,40,28,4.2,0.00002,0.00012,52.6,52.7,46,55,0,0.0,8.21,0.00,0.00
15min,AgWx,bigpiney,439,30AUG2020:06:45:00,41.2,12.6,41.3,40.1,39.3,42.0,37.8,59,62,55,0.516,26.0,28.0,24.6,1.271,1.0,131,35,2.7,0.00014,0.00021,52.6,52.8,46,88,0,0.0,8.21,0.00,0.00
15min,AgWx,bigpiney,439,30AUG2020:07:00:00,42.3,12.68,44.7,45.4,47.3,51.3,40.2,52,65,47,0.546,30.6,33.8,27.9,3.99,3.7,316,56,6.1,0.00061,0.00091,52.5,52.7,46,125,0,0.0,8.21,0.00,0.00
15min,AgWx,bigpiney,439,30AUG2020:07:15:00,43.9,12.98,45.9,45.5,46.3,48.1,44.9,54,58,50,0.588,30.6,32.4,29.5,0.899,1.8,21,28,3.9,0.00066,0.00084,52.4,52.7,46,172,0,0.0,8.21,0.00,0.00
15min,AgWx,bigpiney,439,30AUG2020:07:30:00,45.5,13.35,58.6,57.2,50.0,57.2,45.5,55,58,47,0.743,34.2,38.3,31.1,4.384,0.8,210,56,4.4,0.00089,0.00101,52.4,52.6,46,225,0,0.0,8.21,0.00,0.00
15min,AgWx,bigpiney,439,30AUG2020:07:45:00,48.5,13.54,62.6,62.4,60.4,62.4,57.4,42,46,39,0.740,37.0,38.2,35.9,6.555,5.8,234,8.4,7.7,0.00188,0.00258,52.3,52.7,46,277,0,0.0,8.21,0.00,0.00
15min,AgWx,bigpiney,439,30AUG2020:08:00:00,52.9,13.67,64.3,64.3,63.5,64.5,62.4,37,40,32,0.792,36.5,39.2,33.8,7.103,6.8,224,7.8,9.5,0.00238,0.00328,52.2,52.6,46,318,0,0.0,8.21,0.00,0.00